Temp
-10 -10 -10 -10 -11 -11 -10 -10 -10 -9 -9 -9 -8 -9 -8 -8 -8 -8 -8 -9 -9 -9 -9 -9 -8 -8 -9 -9 -9 -9 -9 -9 -9 -9 -8 -8 -8 -8 -9 -9 -8 -8 -9 -9 -9 -9 -9 -9 -10
-10 -10 -10 -10 -11 -11 -10 -10 -10 -9 -9 -9 -8 -8 -8 -8 -8 -8 -8 -8 -8 -9 -9 -8 -8 -8 -8 -9 -9 -9 -9 -9 -9 -9 -9 -8 -8 -8 -8 -8 -8 -9 -9 -9 -9 -9 -10 -9 -9
-10 -10 -10 -10 -10 -11 -11 -10 -10 -10 -9 -9 -8 -8 -8 -8 -8 -8 -8 -8 -8 -8 -9 -8 -8 -8 -8 -8 -9 -9 -9 -9 -9 -9 -9 -9 -9 -8 -8 -8 -8 -9 -9 -9 -9 -9 -9 -9 -9
-10 -10 -10 -10 -10 -11 -11 -10 -10 -10 -9 -9 -8 -9 -8 -8 -8 -8 -8 -8 -8 -8 -9 -8 -8 -8 -8 -8 -8 -8 -9 -9 -9 -9 -9 -9 -8 -8 -8 -8 -8 -8 -8 -9 -9 -9 -9 -9 -9
-10 -10 -10 -9 -10 -10 -11 -10 -10 -10 -10 -10 -8 -9 -9 -8 -8 -8 -8 -8 -8 -8 -8 -8 -8 -9 -9 -9 -9 -9 -9 -9 -8 -9 -9 -9 -9 -9 -9 -9 -8 -8 -8 -8 -8 -8 -8 -9 -8
-10 -10 -9 -9 -10 -11 -11 -10 -10 -10 -9 -9 -9 -9 -9 -9 -8 -8 -8 -8 -8 -8 -8 -8 -8 -9 -9 -9 -9 -9 -9 -9 -9 -9 -9 -8 -9 -9 -9 -9 -9 -9 -9 -9 -9 -8 -8 -8 -8
-10 -10 -9 -9 -10 -10 -11 -10 -10 -11 -11 -9 -9 -9 -9 -9 -9 -9 -8 -8 -8 -8 -8 -8 -8 -9 -9 -9 -9 -9 -9 -9 -9 -9 -9 -9 -9 -9 -9 -9 -9 -9 -9 -9 -9 -9 -9 -9 -9
-10 -10 -10 -10 -10 -10 -10 -10 -10 -10 -10 -10 -9 -10 -9 -10 -10 -9 -9 -8 -8 -8 -8 -8 -8 -9 -9 -9 -9 -9 -9 -9 -9 -9 -9 -9 -9 -8 -8 -8 -9 -8 -8 -9 -9 -9 -9 -9 -9
-10 -10 -10 -10 -10 -10 -10 -10 -10 -10 -10 -10 -10 -10 -10 -10 -10 -10 -9 -9 -9 -9 -8 -8 -8 -9 -9 -9 -9 -9 -9 -9 -9 -9 -9 -8 -8 -8 -8 -8 -8 -8 -9 -9 -8 -9 -9 -9 -9
-9 -10 -10 -11 -11 -10 -10 -10 -10 -10 -10 -10 -10 -10 -10 -10 -10 -10 -10 -9 -9 -9 -9 -9 -9 -9 -9 -9 -9 -9 -9 -9 -9 -9 -9 -9 -9 -9 -9 -9 -9 -9 -9 -9 -9 -9 -9 -9 -9
-9 -9 -11 -11 -11 -11 -10 -10 -10 -10 -10 -10 -10 -10 -10 -10 -10 -10 -10 -10 -10 -9 -9 -10 -9 -9 -9 -9 -9 -9 -9 -9 -9 -9 -9 -9 -9 -9 -9 -9 -9 -9 -9 -9 -9 -10 -10 -9 -9
-10 -10 -11 -11 -11 -11 -11 -10 -10 -10 -10 -10 -10 -11 -10 -10 -10 -10 -10 -10 -10 -10 -10 -10 -10 -10 -10 -9 -9 -9 -9 -9 -9 -9 -9 -9 -9 -9 -9 -9 -9 -10 -10 -9 -9 -10 -9 -9 -9
-10 -10 -11 -11 -11 -11 -11 -11 -10 -10 -11 -10 -10 -10 -10 -10 -10 -11 -11 -10 -10 -10 -10 -10 -10 -10 -10 -10 -9 -9 -9 -9 -9 -10 -9 -10 -10 -10 -10 -9 -9 -9 -9 -9 -9 -9 -9 -9 -9
-11 -11 -11 -11 -12 -11 -11 -11 -11 -11 -11 -11 -10 -10 -10 -11 -11 -11 -11 -11 -11 -10 -10 -10 -10 -10 -10 -10 -10 -10 -10 -9 -9 -10 -10 -10 -10 -10 -10 -10 -10 -9 -9 -9 -9 -9 -9 -9 -9
-12 -12 -11 -11 -12 -12 -12 -11 -11 -12 -11 -11 -11 -10 -10 -11 -11 -11 -11 -11 -11 -11 -10 -11 -10 -10 -10 -10 -10 -10 -10 -10 -10 -10 -10 -10 -10 -10 -10 -10 -10 -10 -10 -9 -9 -9 -9 -9 -9
-12 -12 -11 -12 -12 -12 -12 -12 -12 -12 -12 -11 -11 -10 -11 -11 -11 -12 -11 -11 -11 -11 -11 -10 -11 -11 -10 -10 -10 -10 -10 -10 -10 -10 -10 -10 -10 -10 -10 -10 -10 -10 -10 -9 -9 -9 -9 -9 -9
-13 -12 -12 -12 -12 -13 -13 -12 -13 -13 -12 -12 -12 -11 -11 -11 -10 -11 -11 -11 -12 -11 -11 -11 -11 -11 -11 -11 -11 -10 -10 -10 -10 -10 -10 -10 -10 -10 -10 -10 -10 -10 -10 -10 -9 -9 -9 -9 -9
-13 -13 -13 -13 -13 -13 -13 -13 -13 -13 -13 -12 -12 -12 -11 -11 -11 -12 -10 -12 -12 -12 -11 -11 -11 -11 -11 -11 -11 -11 -11 -11 -11 -11 -11 -11 -11 -10 -10 -10 -10 -10 -10 -10 -9 -9 -9 -9 -9
-13 -13 -13 -13 -13 -13 -13 -13 -13 -13 -13 -13 -12 -12 -12 -11 -11 -11 -12 -12 -12 -12 -12 -12 -11 -12 -11 -11 -11 -11 -11 -11 -11 -11 -11 -11 -11 -11 -11 -11 -10 -10 -10 -10 -10 -10 -9 -9 -9
-13 -14 -14 -14 -13 -13 -13 -13 -13 -13 -13 -13 -13 -13 -12 -12 -11 -12 -12 -12 -12 -12 -12 -12 -12 -12 -12 -12 -12 -11 -12 -12 -12 -12 -11 -11 -11 -11 -11 -11 -11 -10 -10 -10 -10 -10 -10 -10 -10
-14 -14 -14 -14 -14 -13 -13 -13 -13 -13 -13 -13 -14 -13 -13 -12 -12 -12 -12 -13 -12 -12 -12 -12 -12 -12 -12 -12 -12 -12 -12 -12 -12 -12 -12 -12 -11 -11 -11 -11 -11 -11 -11 -10 -10 -10 -10 -10 -10
-14 -14 -15 -15 -14 -14 -13 -13 -13 -13 -13 -13 -13 -14 -13 -13 -12 -12 -12 -12 -12 -12 -11 -12 -12 -12 -12 -12 -12 -12 -12 -12 -12 -12 -12 -12 -12 -12 -11 -11 -11 -11 -11 -11 -11 -11 -11 -11 -11
-15 -15 -14 -14 -15 -14 -13 -13 -13 -13 -13 -12 -13 -14 -14 -13 -13 -13 -13 -13 -13 -13 -12 -12 -12 -11 -12 -12 -12 -12 -12 -12 -12 -12 -12 -12 -12 -12 -12 -12 -11 -11 -11 -11 -11 -11 -11 -11 -11
-15 -15 -15 -15 -15 -14 -14 -14 -13 -13 -13 -13 -14 -14 -15 -14 -14 -14 -14 -13 -13 -12 -12 -12 -12 -12 -12 -12 -12 -12 -12 -12 -13 -13 -12 -12 -12 -12 -12 -12 -12 -12 -12 -12 -12 -12 -12 -12 -11
-15 -15 -15 -15 -14 -14 -14 -14 -13 -13 -14 -14 -14 -15 -15 -16 -15 -14 -14 -14 -14 -14 -13 -13 -13 -13 -13 -13 -12 -12 -12 -12 -13 -12 -12 -12 -12 -12 -12 -12 -12 -12 -12 -12 -12 -12 -12 -12 -12
-15 -15 -15 -15 -15 -15 -15 -14 -14 -14 -15 -14 -15 -15 -15 -15 -14 -14 -14 -14 -14 -13 -14 -13 -12 -13 -12 -13 -13 -13 -13 -13 -13 -13 -13 -13 -13 -13 -13 -13 -13 -13 -13 -13 -13 -13 -13 -13 -13
-16 -15 -16 -16 -15 -15 -15 -14 -15 -15 -15 -15 -15 -15 -14 -14 -15 -15 -14 -14 -14 -14 -13 -13 -13 -12 -12 -13 -13 -13 -13 -13 -13 -13 -13 -13 -13 -13 -14 -13 -14 -14 -14 -13 -13 -13 -13 -13 -13
-16 -16 -16 -16 -16 -15 -15 -15 -15 -15 -15 -15 -15 -15 -15 -14 -15 -15 -15 -14 -14 -14 -13 -13 -13 -13 -13 -13 -13 -13 -13 -13 -13 -14 -13 -13 -14 -14 -14 -14 -14 -14 -14 -14 -13 -13 -13 -13 -13
-17 -16 -17 -17 -16 -16 -16 -15 -15 -15 -15 -15 -15 -15 -15 -15 -15 -15 -15 -15 -15 -14 -14 -14 -13 -13 -13 -13 -13 -13 -14 -14 -14 -14 -14 -14 -14 -14 -14 -15 -15 -15 -15 -14 -15 -14 -14 -14 -14
-17 -17 -17 -17 -17 -16 -17 -16 -16 -15 -15 -16 -16 -15 -15 -15 -16 -16 -16 -15 -16 -15 -15 -15 -14 -13 -14 -13 -13 -13 -13 -14 -14 -14 -14 -14 -14 -14 -14 -14 -15 -15 -15 -15 -15 -14 -14 -14 -14
Height
5835 5836 5837 5839 5842 5840 5841 5841 5842 5844 5845 5846 5845 5843 5842 5844 5841 5842 5841 5842 5842 5842 5843 5843 5841 5840 5839 5835 5833 5834 5835 5836 5835 5836 5839 5841 5842 5843 5844 5845 5846 5848 5849 5851 5853 5856 5857 5858 5859
5831 5833 5835 5836 5838 5839 5840 5840 5841 5842 5844 5845 5844 5844 5843 5844 5841 5840 5841 5842 5843 5842 5845 5845 5842 5842 5840 5837 5837 5837 5837 5839 5840 5840 5842 5844 5845 5846 5848 5849 5850 5851 5852 5854 5856 5858 5859 5860 5862
5827 5829 5832 5833 5835 5838 5839 5838 5839 5841 5842 5845 5844 5843 5844 5842 5841 5839 5840 5842 5843 5844 5846 5847 5845 5844 5841 5840 5839 5840 5842 5843 5844 5845 5845 5847 5847 5850 5851 5852 5853 5854 5855 5856 5857 5858 5860 5861 5862
5823 5826 5828 5830 5833 5836 5836 5836 5836 5839 5840 5843 5844 5843 5844 5842 5840 5839 5839 5841 5843 5845 5847 5848 5846 5846 5843 5842 5842 5843 5845 5846 5847 5848 5849 5850 5851 5852 5853 5854 5855 5856 5857 5857 5858 5860 5861 5861 5862
5817 5820 5823 5826 5830 5834 5833 5833 5836 5838 5838 5839 5842 5843 5844 5843 5842 5839 5840 5842 5843 5845 5847 5848 5847 5847 5846 5846 5846 5847 5848 5849 5850 5850 5851 5853 5854 5855 5857 5858 5859 5860 5859 5860 5861 5862 5862 5863 5865
5812 5815 5818 5823 5826 5829 5829 5829 5833 5836 5837 5838 5840 5840 5843 5844 5843 5842 5842 5843 5844 5846 5847 5848 5848 5849 5849 5849 5849 5850 5851 5852 5853 5854 5855 5856 5857 5858 5860 5861 5862 5862 5862 5863 5865 5865 5866 5867 5867
5807 5809 5813 5817 5822 5824 5824 5826 5830 5833 5836 5835 5837 5840 5843 5844 5841 5844 5844 5845 5846 5846 5847 5848 5849 5849 5850 5851 5852 5853 5854 5855 5856 5857 5858 5859 5859 5860 5862 5863 5864 5865 5866 5866 5867 5867 5868 5869 5868
5800 5803 5808 5812 5817 5819 5819 5823 5826 5829 5833 5833 5836 5838 5841 5844 5841 5844 5846 5846 5847 5848 5848 5848 5850 5851 5852 5853 5854 5856 5856 5857 5858 5859 5861 5862 5863 5864 5864 5865 5866 5866 5866 5867 5867 5868 5869 5868 5868
5792 5796 5802 5808 5813 5814 5814 5818 5822 5825 5829 5831 5834 5838 5841 5843 5841 5844 5846 5846 5847 5849 5849 5848 5850 5852 5853 5855 5856 5858 5859 5860 5860 5861 5862 5862 5864 5865 5866 5866 5867 5868 5868 5868 5868 5868 5868 5868 5868
5785 5790 5798 5804 5807 5806 5809 5812 5816 5820 5825 5829 5833 5838 5840 5842 5842 5843 5846 5846 5845 5847 5847 5847 5850 5853 5854 5856 5857 5859 5861 5862 5862 5863 5864 5864 5864 5865 5866 5867 5867 5868 5868 5868 5868 5868 5868 5868 5868
5779 5784 5793 5797 5799 5800 5803 5807 5811 5815 5820 5828 5832 5835 5837 5840 5840 5841 5845 5847 5846 5845 5845 5846 5848 5853 5855 5856 5858 5859 5860 5861 5862 5863 5864 5864 5865 5866 5866 5867 5867 5867 5867 5867 5867 5867 5866 5866 5865
5772 5779 5785 5790 5791 5791 5796 5800 5806 5809 5817 5821 5827 5830 5834 5837 5839 5840 5843 5846 5846 5845 5844 5845 5847 5849 5854 5856 5858 5859 5860 5861 5862 5863 5864 5864 5865 5865 5865 5866 5866 5866 5866 5865 5864 5864 5864 5863 5862
5764 5772 5777 5781 5783 5786 5789 5794 5800 5803 5808 5814 5821 5826 5831 5834 5836 5837 5840 5844 5846 5844 5843 5845 5847 5847 5850 5854 5857 5859 5860 5861 5862 5863 5864 5864 5865 5865 5865 5865 5865 5865 5864 5863 5862 5862 5861 5861 5860
5757 5764 5769 5772 5776 5780 5784 5788 5791 5799 5803 5808 5816 5821 5826 5830 5833 5835 5839 5842 5843 5844 5843 5842 5845 5847 5847 5851 5855 5857 5859 5860 5860 5861 5863 5864 5864 5864 5865 5865 5865 5864 5863 5861 5860 5860 5860 5859 5858
5748 5756 5761 5765 5769 5773 5776 5779 5784 5791 5797 5801 5808 5815 5820 5823 5828 5833 5834 5838 5840 5842 5843 5842 5842 5844 5846 5848 5852 5855 5857 5858 5860 5859 5861 5862 5862 5863 5862 5862 5862 5862 5860 5859 5858 5857 5857 5856 5855
5742 5747 5753 5758 5761 5764 5768 5772 5779 5783 5790 5796 5802 5807 5814 5819 5823 5825 5830 5834 5837 5840 5841 5841 5842 5843 5845 5845 5849 5853 5854 5856 5857 5859 5859 5859 5860 5860 5860 5859 5859 5858 5857 5857 5856 5856 5855 5854 5852
5734 5740 5746 5750 5751 5754 5760 5764 5772 5774 5780 5788 5795 5801 5807 5812 5817 5821 5826 5829 5832 5835 5836 5838 5839 5841 5843 5844 5846 5849 5852 5854 5855 5856 5857 5857 5857 5857 5857 5856 5856 5855 5854 5854 5853 5853 5852 5851 5849
5727 5731 5737 5742 5744 5746 5752 5756 5762 5767 5772 5779 5788 5795 5801 5805 5809 5815 5817 5820 5824 5828 5830 5833 5835 5837 5840 5841 5843 5845 5848 5850 5852 5852 5853 5854 5854 5854 5854 5853 5852 5852 5850 5850 5849 5849 5847 5846 5845
5720 5723 5728 5734 5736 5736 5742 5747 5754 5759 5763 5769 5779 5788 5794 5800 5804 5806 5808 5812 5818 5821 5824 5827 5831 5832 5835 5836 5838 5841 5844 5846 5847 5848 5849 5850 5850 5849 5849 5849 5848 5846 5846 5844 5844 5843 5842 5841 5839
5715 5717 5721 5725 5729 5731 5733 5738 5745 5751 5757 5763 5772 5781 5788 5792 5797 5800 5804 5806 5810 5814 5816 5819 5824 5827 5829 5831 5832 5835 5838 5839 5841 5842 5843 5844 5844 5843 5843 5843 5842 5841 5840 5839 5838 5837 5836 5834 5832
5709 5711 5713 5718 5720 5724 5727 5730 5736 5743 5749 5754 5760 5769 5775 5783 5789 5792 5796 5800 5803 5807 5809 5812 5815 5819 5822 5824 5826 5830 5831 5833 5834 5836 5837 5838 5838 5837 5836 5836 5836 5834 5833 5832 5831 5830 5829 5827 5826
5701 5704 5706 5709 5713 5718 5720 5724 5728 5735 5740 5746 5753 5760 5767 5774 5780 5785 5788 5794 5796 5799 5802 5803 5807 5811 5813 5817 5820 5822 5825 5827 5828 5830 5831 5831 5831 5831 5830 5830 5829 5828 5828 5826 5825 5824 5823 5821 5820
5695 5694 5698 5702 5706 5710 5714 5716 5721 5725 5730 5738 5743 5748 5757 5766 5772 5776 5780 5784 5785 5790 5795 5796 5797 5801 5804 5808 5812 5814 5817 5818 5820 5823 5825 5825 5825 5824 5824 5823 5823 5822 5822 5821 5819 5818 5817 5815 5814
5686 5688 5692 5695 5698 5702 5705 5707 5713 5721 5729 5731 5736 5740 5744 5753 5761 5766 5770 5773 5777 5782 5786 5789 5791 5792 5797 5802 5805 5808 5810 5812 5813 5815 5817 5818 5818 5818 5818 5817 5816 5815 5815 5815 5814 5813 5812 5810 5807
5677 5681 5684 5688 5690 5694 5700 5704 5712 5714 5717 5721 5725 5731 5736 5741 5748 5755 5761 5766 5770 5772 5774 5778 5782 5786 5790 5793 5797 5800 5801 5803 5804 5805 5808 5809 5810 5811 5810 5809 5809 5809 5808 5807 5807 5806 5805 5803 5802
5667 5673 5677 5679 5682 5688 5693 5699 5699 5700 5701 5704 5711 5716 5721 5728 5735 5742 5749 5752 5756 5759 5764 5768 5771 5775 5779 5783 5785 5787 5790 5793 5794 5796 5799 5801 5802 5802 5802 5802 5802 5802 5801 5801 5800 5800 5798 5796 5794
5658 5661 5669 5670 5673 5678 5685 5688 5686 5689 5692 5696 5701 5706 5710 5715 5722 5729 5736 5742 5746 5750 5754 5758 5761 5764 5767 5769 5772 5777 5779 5782 5783 5786 5789 5793 5793 5794 5794 5794 5794 5794 5793 5793 5793 5792 5790 5789 5786
5648 5654 5657 5659 5663 5667 5672 5676 5679 5682 5686 5691 5694 5698 5702 5706 5713 5719 5723 5726 5733 5740 5745 5749 5750 5754 5756 5758 5762 5765 5770 5772 5773 5776 5780 5783 5784 5785 5785 5785 5784 5784 5784 5784 5783 5783 5782 5780 5779
5637 5641 5645 5650 5654 5658 5662 5665 5671 5674 5678 5683 5689 5691 5694 5697 5702 5709 5716 5722 5726 5730 5734 5738 5740 5743 5746 5749 5751 5753 5755 5760 5763 5766 5770 5772 5774 5775 5776 5776 5776 5776 5775 5775 5774 5774 5773 5772 5770
5625 5631 5635 5639 5645 5648 5652 5655 5659 5664 5670 5675 5678 5683 5687 5689 5693 5699 5705 5711 5718 5722 5726 5729 5730 5732 5735 5738 5741 5743 5746 5748 5753 5756 5759 5761 5763 5765 5766 5767 5767 5767 5766 5766 5766 5766 5765 5764 5763
Wind_Speed
22 22 22 20 17 14 13 14 15 8 8 5 3 4 5 4 10 11 10 7 11 14 11 10 12 14 15 17 17 18 18 19 17 12 14 17 15 18 19 22 20 18 16 18 21 15 16 17 15
26 23 24 24 21 15 12 14 14 15 11 8 3 4 1 5 11 12 11 9 8 11 8 8 12 13 16 17 15 17 19 18 19 14 13 15 16 18 18 17 15 13 15 16 16 15 13 12 11
28 27 24 25 23 15 14 16 14 13 19 9 6 3 1 5 9 12 11 10 7 7 4 5 10 13 17 19 16 15 16 17 17 19 13 13 14 13 11 13 11 11 11 12 12 12 10 8 8
28 27 27 24 22 19 20 19 20 16 14 14 7 4 4 5 9 12 12 10 8 7 5 8 13 13 17 20 19 16 14 15 15 16 17 19 15 11 14 11 9 10 9 9 9 8 8 7 6
31 29 28 24 24 22 24 23 19 15 14 18 11 6 4 4 8 11 12 11 10 9 7 9 12 14 16 17 18 19 17 16 15 15 14 14 14 14 16 14 11 11 12 11 10 7 5 4 4
33 31 29 26 27 24 25 26 19 16 19 18 15 10 7 4 5 7 10 11 12 9 9 11 13 15 16 17 17 17 17 18 20 18 15 14 14 14 12 12 10 10 10 8 8 6 5 3 2
36 35 31 31 28 28 29 26 23 19 12 17 21 15 10 8 7 3 5 10 13 14 12 13 14 16 17 18 18 18 17 18 19 19 19 19 19 18 18 17 16 15 13 9 6 4 2 1 2
38 39 35 32 28 30 32 28 22 23 12 19 21 19 13 11 7 3 5 9 11 14 15 15 14 16 17 18 18 19 19 19 19 20 20 19 19 18 17 16 16 15 14 12 10 8 6 4 4
38 41 36 31 28 31 33 31 27 25 18 20 23 20 16 12 8 8 9 11 11 12 14 16 14 15 15 15 16 16 16 15 15 15 15 15 14 13 12 12 11 10 8 7 6 5 5 4 4
38 39 36 31 30 34 35 34 32 30 23 20 26 19 18 13 10 9 10 12 14 12 14 16 15 13 13 13 12 12 11 10 10 9 9 9 9 10 11 9 8 7 6 6 5 5 5 6 7
37 36 34 33 35 35 36 35 33 34 28 20 23 24 21 17 13 10 7 6 9 12 13 14 14 11 11 10 10 9 8 7 6 5 5 5 6 7 5 5 5 7 8 8 8 9 10 10 11
36 33 37 36 41 40 37 36 34 34 30 29 29 23 26 21 17 13 11 10 9 9 10 11 12 12 9 8 8 7 6 5 3 3 3 5 2 2 4 6 8 9 11 11 11 12 11 11 12
39 33 36 42 43 44 39 38 36 36 35 32 29 24 24 27 22 18 16 12 9 9 10 8 8 9 9 7 6 5 4 3 2 3 3 4 3 1 3 6 8 11 12 12 12 13 12 12 13
39 35 35 41 43 43 42 40 40 38 38 34 31 30 28 25 25 22 16 13 12 10 9 10 8 7 8 7 5 3 3 2 2 2 3 6 5 6 6 7 9 12 13 13 12 13 14 15 17
40 38 36 38 44 44 44 45 43 41 39 38 33 31 31 25 33 26 21 18 16 14 12 9 7 8 9 7 5 3 3 2 2 3 4 7 8 10 12 15 15 14 12 13 15 15 15 17 19
42 39 39 38 45 46 47 44 37 41 41 42 40 34 32 27 33 36 23 23 22 19 17 14 11 10 10 10 8 7 6 5 4 4 5 6 8 11 13 15 16 17 15 15 16 16 16 17 19
40 41 39 38 44 51 50 49 39 40 41 42 40 37 34 32 31 27 30 29 23 22 21 18 17 15 14 13 13 13 12 12 10 9 9 9 10 12 13 14 15 17 17 19 19 17 16 16 18
31 35 38 38 43 52 53 52 46 41 41 43 40 35 35 31 30 33 34 37 30 28 27 23 20 19 17 15 14 14 16 16 16 15 16 16 15 16 16 17 18 19 19 20 21 20 19 19 19
30 33 36 39 40 49 55 55 51 48 44 43 41 40 37 33 34 34 34 26 32 34 32 27 26 25 23 21 20 20 20 20 19 19 20 20 19 19 19 20 21 21 23 24 23 22 21 22 22
26 29 30 34 40 44 53 59 54 53 50 42 35 36 36 33 36 33 36 31 34 33 31 33 33 30 28 26 25 24 24 24 23 24 25 26 25 24 23 23 24 24 25 26 25 24 23 23 24
28 27 28 28 36 43 46 55 60 58 54 51 41 38 39 37 40 37 37 34 38 39 36 33 34 34 33 30 28 27 27 27 26 26 27 26 25 25 25 25 26 27 27 26 25 23 23 24 25
30 29 29 27 32 39 45 48 53 58 58 57 52 43 42 41 42 44 43 39 37 40 39 40 38 37 35 32 34 31 33 30 31 29 30 28 27 27 27 27 27 28 27 27 26 25 26 26 28
28 32 31 29 28 34 41 47 48 53 59 60 58 56 50 44 41 39 38 39 40 40 41 38 41 41 40 36 38 37 38 34 30 32 32 33 31 30 29 29 28 29 29 28 27 26 25 26 28
32 32 32 31 30 29 35 42 47 45 47 54 57 56 51 49 45 40 42 41 42 43 42 41 40 43 41 38 39 39 39 36 32 32 32 33 32 32 31 30 30 29 28 28 27 25 26 29 30
37 34 33 34 35 34 30 34 37 39 42 46 53 54 50 45 43 45 42 40 42 43 46 44 41 41 43 41 42 39 39 39 37 37 36 36 34 33 30 31 30 29 27 26 26 26 30 32 34
38 35 33 34 35 34 30 26 32 37 41 45 50 54 58 55 50 45 41 43 47 47 44 47 52 52 49 43 44 44 42 42 43 44 39 36 32 31 31 34 31 27 27 28 28 29 29 32 34
43 42 37 37 38 37 34 33 35 34 33 41 44 48 53 54 55 52 48 45 46 48 47 44 46 48 52 51 52 48 44 43 45 42 38 33 32 33 34 35 34 37 33 32 30 34 34 34 33
46 42 42 44 44 43 41 39 39 39 36 36 41 45 47 49 50 49 47 46 48 46 41 44 44 49 52 46 44 44 42 44 45 42 37 35 34 31 35 38 37 37 36 36 35 36 37 34 34
44 45 44 45 46 45 44 44 41 41 39 37 36 41 43 46 47 45 44 42 38 41 44 42 42 41 41 44 43 45 42 41 41 37 37 38 34 35 35 36 33 34 34 37 38 35 32 33 34
45 45 45 44 46 47 46 48 46 45 42 40 39 39 40 45 46 47 46 47 41 44 43 39 43 44 45 46 38 36 40 43 37 39 40 40 40 41 37 37 38 39 41 39 35 30 31 32 33
Wind_Direction
240 236 238 238 243 254 271 289 289 271 181 294 70 56 93 107 137 117 112 120 103 96 80 68 70 74 76 75 73 71 72 68 60 94 117 104 103 124 109 121 121 121 123 129 145 132 132 137 143
244 241 242 237 240 248 262 275 295 274 234 251 178 78 96 142 132 130 122 132 117 100 86 65 66 70 79 79 77 76 69 71 68 86 115 115 118 113 122 124 117 115 123 131 136 143 138 141 142
238 242 244 242 238 241 255 268 279 282 261 240 195 140 147 144 133 136 130 127 128 114 99 80 78 76 80 82 78 76 78 76 80 78 106 108 108 121 117 134 135 130 136 139 141 137 136 132 130
239 239 242 245 244 235 248 259 268 272 284 263 210 201 163 148 138 143 141 136 134 121 117 97 88 84 81 81 79 75 73 81 82 90 88 82 85 115 106 121 129 116 119 150 138 132 124 135 150
231 237 243 249 247 240 244 254 259 273 285 265 231 220 194 139 146 134 144 148 137 126 122 97 88 85 82 81 81 82 78 76 81 80 81 84 89 94 92 89 104 103 99 104 105 108 112 133 156
228 232 239 245 241 240 243 247 251 259 276 258 235 228 238 195 118 128 144 146 140 129 122 105 92 86 84 84 81 82 85 83 81 81 81 79 79 81 84 90 90 87 86 91 103 111 117 132 152
232 233 231 235 232 237 242 246 245 252 277 238 222 224 230 223 130 120 158 146 139 133 128 110 98 91 88 88 88 87 85 86 86 86 83 79 77 76 76 76 73 70 71 73 76 82 98 165 240
234 233 231 230 227 231 239 243 244 247 256 232 218 219 214 212 156 189 195 143 136 131 132 121 107 98 94 95 95 95 94 94 94 94 93 90 86 81 78 75 72 67 63 60 58 59 56 56 45
232 232 227 226 226 231 237 237 238 242 232 228 224 222 215 202 174 173 203 167 149 144 131 122 117 110 102 97 95 95 95 94 94 95 95 96 95 91 86 78 69 62 57 50 39 32 17 6 4
234 232 228 224 224 228 233 234 234 236 226 227 224 227 223 198 178 171 185 169 152 145 132 122 122 122 117 111 105 97 90 87 87 88 92 93 92 80 66 58 46 33 18 359 340 330 317 312 316
236 234 228 222 226 230 233 232 233 237 229 220 215 228 220 207 187 166 181 179 157 151 138 130 129 133 134 131 126 116 108 101 89 86 93 104 98 82 63 35 12 354 344 332 321 308 298 299 295
237 233 228 224 221 228 231 234 233 234 230 223 224 223 223 216 192 192 199 204 177 153 145 144 141 142 140 145 141 134 129 122 112 115 121 137 120 64 11 5 2 347 337 323 311 304 296 295 294
233 230 225 222 224 225 229 232 232 235 231 227 227 233 234 219 209 199 206 207 215 182 152 152 156 153 149 157 152 156 147 162 157 163 175 179 193 292 345 351 354 356 342 329 315 310 306 302 300
232 227 228 222 223 224 229 229 232 232 240 236 221 221 224 226 220 211 206 215 221 216 185 166 167 175 164 167 177 185 192 215 252 267 234 209 236 277 301 322 332 337 340 340 329 317 312 310 309
238 230 224 224 220 226 229 228 230 231 231 237 228 232 225 231 221 211 204 216 215 221 214 198 182 187 182 184 201 199 208 233 279 282 275 268 287 299 301 306 309 313 324 327 326 325 322 313 308
241 236 225 222 219 222 229 231 227 232 230 234 236 240 232 221 239 205 218 222 226 223 221 219 220 216 213 203 222 243 247 248 255 286 295 296 300 301 302 304 306 309 301 306 311 315 316 316 310
241 239 229 224 221 220 224 231 231 234 235 233 237 241 239 234 230 248 241 224 226 230 232 221 222 226 233 231 232 243 252 261 265 272 280 287 294 297 300 301 301 305 302 302 303 303 302 303 306
245 241 235 228 225 222 222 228 231 236 235 237 235 234 235 228 226 218 220 236 225 226 233 230 228 232 237 242 244 249 257 263 270 275 279 283 286 289 293 294 297 299 300 301 304 305 300 298 302
246 242 235 230 228 226 223 226 228 234 239 239 236 234 232 221 221 236 215 235 227 226 234 235 233 229 235 239 249 256 264 269 272 273 278 281 285 286 289 292 293 295 298 300 303 302 298 295 297
247 247 242 232 231 232 228 226 228 230 237 243 241 237 233 226 212 221 238 251 222 228 234 238 235 235 240 244 250 255 261 264 265 269 273 277 280 284 288 291 291 292 292 293 296 298 300 298 298
245 247 247 237 229 233 233 231 228 229 234 237 235 229 227 225 218 221 227 224 228 232 242 241 245 244 238 243 249 253 257 260 266 270 273 276 279 282 285 288 289 290 290 292 295 297 298 302 301
243 246 246 242 236 229 233 237 234 232 232 236 240 233 234 238 231 231 234 235 235 240 241 242 242 244 246 244 246 249 251 255 258 268 276 279 281 283 284 285 287 289 290 290 291 292 295 298 300
240 242 242 243 242 234 234 237 235 235 235 236 238 240 240 236 238 241 246 237 232 238 239 238 243 246 241 238 241 245 250 253 253 264 269 276 281 282 283 284 285 286 288 288 289 291 293 296 297
239 245 246 245 244 238 233 237 236 239 243 243 244 243 245 242 234 231 232 236 234 237 239 241 242 244 244 244 245 246 250 254 255 260 268 276 277 281 282 282 282 282 284 285 287 291 296 301 295
242 242 243 244 243 245 237 239 241 238 238 239 241 244 246 247 244 234 234 237 237 237 237 238 240 245 248 243 245 249 252 253 256 260 262 269 273 276 279 280 280 281 283 284 287 287 297 297 292
245 244 244 246 247 248 249 238 241 238 235 233 232 236 240 245 247 243 228 229 231 232 233 237 237 241 246 244 241 243 245 249 255 259 263 266 268 271 279 285 278 276 283 283 284 292 296 294 290
241 241 241 243 246 246 243 237 241 239 236 235 234 234 236 239 240 244 243 232 233 232 231 235 236 236 236 239 239 241 247 250 252 255 257 263 264 273 279 284 277 277 280 279 279 291 293 291 289
241 241 239 241 243 244 244 241 241 244 242 238 238 237 238 238 241 241 237 235 234 234 235 237 241 235 231 235 239 241 245 251 253 251 253 254 264 270 277 277 279 280 275 276 284 285 286 283 283
240 240 239 241 245 247 249 249 245 245 250 247 243 244 242 243 241 240 238 238 244 238 238 233 230 230 232 235 239 240 235 241 246 247 247 255 259 267 273 278 277 276 274 275 278 283 278 278 280
243 243 242 242 246 249 251 252 252 251 247 246 249 245 245 247 246 246 247 245 248 253 253 252 235 231 231 232 233 237 237 243 244 244 246 252 258 264 270 272 273 273 275 276 281 277 275 278 278